Location: Newark
(42.8481°N, 0.4872°E)
Time: 22:59:27
(UTC+00:00)

Vanguard 3 - Pass Details

Date: 01 November 2020
Orbit: 508 x 3262 km, 33.3° (Epoch: 29 November)

Event Time Altitude Azimuth Distance (km) Brightness Sun altitude
Rises 04:07:51 0° 230° (SW) 5,600 - -27.0°
Reaches altitude 10° 04:11:12 10° 224° (SW) 4,915 - -26.3°
Exits shadow 04:13:13 17° 220° (SW) 4,548 10.5 -26.0°
Maximum altitude 04:25:47 50° 155° (SSE) 3,594 10.4 -23.7°
Drops below altitude 10° 04:44:22 10° 89° (E) 6,155 12.8 -20.3°
Sets 04:49:10 0° 85° (E) 7,054 13.5 -19.4°
